This is the latest recevied weather packets stored in our database for station/object KC1IUC-15. If no packets are shown the sender has not sent any weather packets the latest 10 day(s).
| Time | Temp. | Humidity | Pressure | Rain* | Wind** | Luminosity | Snow |
|---|---|---|---|---|---|---|---|
| 1778000103 | 24.44° C | 47% | 1008.6 hPa | 0 mm | - | 697 W/m² | - |
| 1777999803 | 24.44° C | 48% | 1008.6 hPa | 0 mm | - | 701 W/m² | - |
| 1777999503 | 23.89° C | 50% | 1008.6 hPa | 0 mm | - | 699 W/m² | - |
| 1777999203 | 24.44° C | 48% | 1008.6 hPa | 0 mm | - | 706 W/m² | - |
| 1777998903 | 24.44° C | 49% | 1008.9 hPa | 0 mm | - | 706 W/m² | - |
| 1777998603 | 24.44° C | 49% | 1008.9 hPa | 0 mm | - | 706 W/m² | - |
| 1777998303 | 23.89° C | 51% | 1008.9 hPa | 0 mm | - | 704 W/m² | - |
| 1777998003 | 23.89° C | 49% | 1008.6 hPa | 0 mm | - | 702 W/m² | - |
| 1777997703 | 24.44° C | 46% | 1008.9 hPa | 0 mm | - | 700 W/m² | - |
| 1777997403 | 25° C | 47% | 1008.9 hPa | 0 mm | - | 696 W/m² | - |
| 1777997103 | 24.44° C | 48% | 1009.3 hPa | 0 mm | - | 693 W/m² | - |
| 1777996803 | 24.44° C | 48% | 1008.9 hPa | 0 mm | - | 690 W/m² | - |
| 1777996503 | 24.44° C | 50% | 1009.3 hPa | 0 mm | - | 688 W/m² | - |
| 1777996203 | 24.44° C | 49% | 1009.3 hPa | 0 mm | - | 679 W/m² | - |
| 1777995903 | 23.89° C | 49% | 1009.6 hPa | 0 mm | - | 673 W/m² | - |
| 1777995603 | 23.89° C | 49% | 1009.3 hPa | 0 mm | - | 673 W/m² | - |
| 1777995303 | 23.33° C | 52% | 1009.6 hPa | 0 mm | - | 666 W/m² | - |
| 1777995003 | 23.33° C | 52% | 1009.9 hPa | 0 mm | - | 660 W/m² | - |
| 1777994703 | 23.33° C | 53% | 1009.9 hPa | 0 mm | - | 654 W/m² | - |
| 1777994403 | 22.78° C | 52% | 1009.6 hPa | 0 mm | - | 650 W/m² | - |
| 1777994104 | 22.78° C | 53% | 1009.9 hPa | 0 mm | - | 644 W/m² | - |
| 1777993803 | 22.78° C | 52% | 1009.9 hPa | 0 mm | - | 637 W/m² | - |
| 1777993503 | 22.78° C | 53% | 1009.9 hPa | 0 mm | - | 627 W/m² | - |
| 1777993203 | 22.78° C | 54% | 1010.3 hPa | 0 mm | - | 621 W/m² | - |
| 1777992903 | 21.67° C | 55% | 1010.3 hPa | 0 mm | - | 611 W/m² | - |
* Rain latest hour (hover to see other rain measurements)
** Current wind speed in m/s (hover to see current wind gust speed)